Powrót do katalogu

STARLINK-11242

AktywnyŁącznośćVLEO
NORAD 60903·PAYLOAD·🇺🇸 United States

Wystrzelony Aug 31, 2024 z Cape Canaveral Space Force Station

Loading…

Następne Przeloty (najbliższe 24 godziny)

TLE

ŚwieżeSource: CelesTrak SupGP

Epoka: Sep 14, 2026, 13:59 UTC

1 60903C 24154A   26257.58312500  .00062193  00000+0  51238-3 0  2579
2 60903  53.1562 279.8324 0001057  75.9382   0.8188 15.69674518    12

Śledź STARLINK-11242 w czasie rzeczywistym z AllMySat

Download on the App Store